GW3047 Weather Reports


Display with metric or nautical units.
time (UTC)temp
F
wind
direction
speed
MPH
gust
MPH
rain 1hr
in
rain 24hr
in
rain mn
in
humidity
%
barometer
mb
20260508023056 66 0 0.0 1.0 0.00 0.00 0.00 30 1011.0
20260508021602 68 0 0.0 0.0 0.00 0.00 0.00 28 1010.9
20260508014557 72 0 0.0 4.0 0.00 0.00 0.00 24 1010.4
20260508013056 73 197 0.0 3.0 0.00 0.00 0.00 23 1010.3
20260508011605 75 201 1.0 4.0 0.00 0.00 0.00 19 1010.3
20260508010059 76 218 3.0 6.0 0.00 0.00 0.00 18 1010.3
20260508004558 76 215 3.0 9.0 0.00 0.06 0.00 17 1010.4
20260508003059 77 229 4.0 11.0 0.00 0.06 0.00 17 1010.5
20260508001555 77 242 2.0 7.0 0.00 0.06 0.00 18 1010.6
20260508000054 77 258 2.0 12.0 0.00 0.06 0.00 18 1010.6
20260507234603 77 199 2.0 12.0 0.00 0.10 0.00 17 1010.6
20260507233059 77 233 6.0 11.0 0.00 0.10 0.00 17 1010.7
20260507231604 78 252 4.0 12.0 0.00 0.10 0.00 17 1010.8
20260507230101 78 202 5.0 9.0 0.00 0.10 0.00 17 1010.8
20260507224558 79 235 4.0 14.0 0.00 0.10 0.00 16 1011.0
20260507223108 79 232 4.0 9.0 0.00 0.10 0.00 18 1010.9
20260507221559 78 324 5.0 12.0 0.00 0.10 0.00 17 1011.0
20260507220056 78 216 4.0 15.0 0.00 0.10 0.00 17 1011.1
20260507214601 77 216 8.0 12.0 0.00 0.10 0.00 17 1011.3
20260507213103 77 218 6.0 14.0 0.00 0.10 0.00 18 1011.5
20260507211558 78 219 7.0 13.0 0.00 0.10 0.00 18 1011.7
20260507210059 77 233 6.0 11.0 0.00 0.10 0.00 19 1011.9
20260507204610 77 257 5.0 13.0 0.00 0.11 0.00 19 1012.2
20260507203109 76 230 5.0 14.0 0.00 0.11 0.00 19 1012.4
20260507201604 76 232 3.0 15.0 0.00 0.11 0.00 20 1012.5
20260507200055 75 243 6.0 17.0 0.00 0.11 0.00 19 1012.7
20260507194559 74 192 7.0 12.0 0.00 0.12 0.00 20 1012.8
20260507193100 74 233 7.0 14.0 0.00 0.12 0.00 21 1013.2
20260507191601 73 210 7.0 14.0 0.00 0.12 0.00 23 1013.3
20260507190101 72 209 8.0 14.0 0.00 0.12 0.00 23 1013.4
20260507184558 72 196 8.0 17.0 0.00 0.13 0.00 22 1013.7
20260507183104 72 242 8.0 16.0 0.00 0.13 0.00 23 1014.1
20260507181555 70 196 8.0 18.0 0.00 0.13 0.00 27 1014.3
20260507180058 69 233 6.0 19.0 0.00 0.13 0.00 28 1014.5
20260507174607 68 235 7.0 16.0 0.00 0.14 0.00 30 1014.6
20260507173103 66 221 9.0 15.0 0.00 0.14 0.00 34 1014.7
20260507171611 65 235 5.0 20.0 0.00 0.14 0.00 39 1015.0
20260507170100 63 240 5.0 18.0 0.00 0.14 0.00 44 1015.4
20260507164610 62 261 6.0 15.0 0.00 0.14 0.00 46 1015.6
20260507163056 60 278 8.0 16.0 0.00 0.14 0.00 48 1015.7
20260507161608 59 252 7.0 14.0 0.00 0.14 0.00 49 1015.9
20260507160059 58 255 8.0 16.0 0.00 0.14 0.00 50 1015.9
20260507154557 56 285 5.0 16.0 0.00 0.16 0.00 54 1015.9
20260507153056 53 253 6.0 12.0 0.00 0.16 0.00 59 1016.1
20260507151608 51 249 9.0 16.0 0.00 0.16 0.00 63 1016.4
20260507150105 49 284 6.0 18.0 0.00 0.16 0.00 65 1016.3
20260507144557 48 286 6.0 16.0 0.00 0.22 0.00 67 1016.6
20260507143106 46 230 8.0 16.0 0.00 0.22 0.00 69 1016.5
20260507141618 44 235 7.0 16.0 0.00 0.22 0.00 72 1016.4
20260507134559 40 251 4.0 11.0 0.00 0.26 0.00 81 1016.6
20260507133100 39 245 5.0 10.0 0.00 0.26 0.00 84 1016.8
20260507131613 37 193 4.0 9.0 0.00 0.26 0.00 86 1017.0
20260507130103 36 217 5.0 12.0 0.00 0.26 0.00 87 1017.2
20260507124558 35 223 4.0 8.0 0.00 0.27 0.00 89 1017.1
20260507123106 35 227 3.0 8.0 0.00 0.27 0.00 89 1017.2
20260507121605 35 231 4.0 10.0 0.00 0.27 0.00 89 1017.2
20260507120057 34 214 3.0 8.0 0.00 0.27 0.00 89 1017.2
20260507114601 35 208 4.0 9.0 0.00 0.27 0.00 89 1017.3
20260507113100 35 217 3.0 9.0 0.00 0.27 0.00 89 1017.2
20260507111559 35 226 4.0 9.0 0.00 0.27 0.00 90 1017.3
20260507110118 35 243 3.0 8.0 0.00 0.27 0.00 90 1017.4
20260507104555 35 228 3.0 9.0 0.00 0.29 0.00 90 1017.6
20260507103059 35 206 3.0 6.0 0.00 0.29 0.00 90 1017.9
20260507101558 36 247 4.0 10.0 0.00 0.29 0.00 90 1017.8
20260507100057 35 233 5.0 10.0 0.00 0.29 0.00 91 1017.8
20260507094608 35 261 4.0 9.0 0.00 0.34 0.00 91 1018.0
20260507093059 35 210 4.0 10.0 0.00 0.34 0.00 91 1018.3
20260507091635 36 232 3.0 7.0 0.00 0.34 0.00 91 1018.6
20260507090106 36 240 4.0 8.0 0.00 0.34 0.00 91 1018.6
20260507084558 36 232 3.0 10.0 0.00 0.36 0.00 91 1018.7
20260507083057 36 218 3.0 8.0 0.00 0.36 0.00 90 1018.8
20260507081556 36 215 2.0 7.0 0.00 0.36 0.00 90 1018.9
20260507080057 37 247 2.0 4.0 0.00 0.36 0.00 91 1019.2
20260507074559 37 220 2.0 7.0 0.00 0.43 0.00 91 1019.4
20260507073054 37 218 3.0 8.0 0.00 0.43 0.00 91 1019.6
20260507071559 38 244 2.0 5.0 0.00 0.43 0.00 91 1019.7
20260507070103 38 228 2.0 5.0 0.00 0.43 0.00 91 1019.9
20260507064559 38 216 4.0 9.0 0.00 0.48 0.00 92 1020.1
20260507063058 38 235 2.0 7.0 0.00 0.48 0.00 92 1020.2
20260507061555 39 247 3.0 8.0 0.00 0.48 0.00 92 1020.5
20260507060110 39 243 2.0 6.0 0.00 0.48 0.00 92 1020.4
20260507054559 39 262 1.0 4.0 0.00 0.54 0.00 92 1020.5
20260507053056 40 254 1.0 4.0 0.00 0.54 0.00 92 1020.5
20260507051557 40 193 0.0 3.0 0.00 0.54 0.00 92 1020.5
20260507050100 40 0 0.0 2.0 0.00 0.54 0.00 92 1020.7
20260507044600 40 193 1.0 2.0 0.00 0.55 0.54 91 1020.7
20260507043101 41 193 0.0 5.0 0.00 0.55 0.54 91 1020.7
20260507041558 41 256 0.0 3.0 0.00 0.55 0.54 91 1021.1
20260507040103 41 267 0.0 3.0 0.00 0.55 0.54 91 1020.8
20260507034600 41 268 0.0 1.0 0.00 0.55 0.54 91 1020.9
20260507033056 42 0 0.0 1.0 0.00 0.55 0.54 91 1020.9
20260507031557 42 0 0.0 2.0 0.00 0.55 0.54 91 1020.9
20260507030057 42 0 0.0 3.0 0.00 0.55 0.54 90 1020.8
20260507024602 42 0 0.0 1.0 0.00 0.55 0.54 89 1020.5